User: anonymous
Location: Oshawa
(43.9000°N, 78.8670°W)
Time: 03:30:02
(UTC-04:00)
Language:

Iridium 98 - Orbit

View from above orbital plane
View from above orbital plane
View from above satellite
View from above satellite

Ground track
Ground track

The orbit data is extracted from the following two-line orbital elements,

1 27451U 02031B   14105.60520770  .00000330  00000-0  92861-4 0  2767
2 27451 086.4448 146.5872 0002757 084.8334 078.8477 14.42955297625135
Epoch (UTC): 15 April 2014 14:31:29
Eccentricity: 0.0002757
inclination: 86.4448°
perigee height: 747 km
apogee height: 751 km
right ascension of ascending node: 146.5872°
argument of perigee: 84.8334°
revolutions per day: 14.42955297
mean anomaly at epoch: 78.8477°
orbit number at epoch: 62513

The dashed part of the orbit path shows where the satellite is in the earth's shadow,  

DLR